Location: ???? ?????????
(44.3677°N, 135.2344°E)
Time: 08:09:00
(UTC+00:00)

Cosmos 2219 Rocket - Pass Details

Date: 19 May 2025
Orbit: 828 x 844 km, 71.0° (Epoch: 23 June)

Event Time Altitude Azimuth Distance (km) Brightness Sun altitude
Rises 17:21:54 0° 314° (NW) 3,388 5.5 -17.5°
Reaches altitude 10° 17:26:05 10° 285° (WNW) 2,443 4.4 -17.1°
Enters shadow 17:27:34 12° 269° (W) 2,319 4.1 -16.9°
